Theta_e
312 311 311 311 311 312 311 311 311 311 311 312 313 314 314 316 315 315 321 322 318 319 323 327 332 335 335 336 336 337 338 337 337 337 336 336 336 337 338 337 337 337 336 336 336 335 335 334 334 333 332 332 333 333 332 332 332 332 331 330 330 330 330 330 331 331 331 330 329 328 327 326 327 326 324 323 321 319 315 310 305 302 300 299 298 298 298
312 312 311 311 311 311 312 312 311 311 311 312 313 314 315 317 316 317 321 320 319 324 327 329 334 335 335 336 336 336 336 337 336 336 336 336 336 337 337 337 337 336 336 336 335 335 335 334 333 333 332 333 333 332 332 332 332 332 331 330 331 331 330 329 330 330 330 329 328 327 326 327 326 324 322 321 319 316 314 309 304 301 300 299 298 298 298
312 312 312 311 312 312 312 312 311 311 311 312 313 314 315 317 316 317 318 317 320 328 329 331 334 335 334 334 335 335 336 336 336 336 336 336 336 337 337 337 337 336 336 335 335 335 335 334 334 333 333 334 333 332 332 332 333 333 332 332 331 331 329 328 329 329 329 328 327 326 326 326 324 322 320 319 317 315 312 308 302 300 299 299 298 298 298
312 313 312 312 312 312 312 312 311 311 312 312 313 314 315 316 316 316 315 315 321 328 329 330 333 333 332 334 335 335 335 335 336 336 336 336 336 337 337 337 337 336 336 335 335 335 334 334 334 333 333 334 333 333 332 332 333 333 333 332 332 330 329 328 327 328 328 328 327 326 325 324 322 320 319 317 316 314 310 306 301 299 299 299 298 298 298
313 313 313 313 313 312 312 313 312 313 313 312 313 313 314 316 317 315 315 318 326 330 329 330 332 331 332 334 335 335 335 335 335 336 336 336 336 336 336 336 336 336 335 335 335 334 334 334 334 333 333 334 333 333 332 332 332 332 332 332 331 330 329 327 326 327 328 327 326 326 324 322 320 319 317 316 315 313 309 304 300 299 299 299 298 298 298
313 313 314 314 313 312 314 315 314 313 313 313 313 314 314 316 316 316 317 322 328 329 330 332 333 332 332 334 335 335 335 335 335 335 336 336 336 336 336 336 336 335 335 334 334 334 334 334 334 332 332 333 333 333 332 331 331 331 332 332 331 329 328 327 327 328 328 326 326 325 322 321 320 318 316 316 314 312 308 303 299 299 300 299 299 298 297
313 314 314 314 313 315 317 318 317 315 315 314 314 314 315 315 316 318 319 320 326 329 331 333 333 332 332 333 334 335 335 335 335 335 336 336 337 336 336 336 335 335 334 333 333 334 333 334 334 332 331 333 333 333 331 329 330 331 331 331 330 329 328 327 327 327 327 326 325 323 321 320 318 316 316 315 313 311 307 302 298 298 299 299 299 298 297
314 314 313 314 315 318 320 318 317 317 316 315 315 315 317 318 320 321 320 321 327 330 331 333 333 332 332 333 334 335 335 336 336 335 335 336 337 337 336 336 335 335 334 333 333 332 332 333 332 331 331 333 333 332 331 329 330 331 330 330 329 328 327 327 326 326 326 326 324 322 321 319 317 316 315 314 312 310 306 301 298 298 300 299 299 298 298
314 313 313 315 317 318 318 317 316 316 316 316 316 315 317 321 322 322 321 324 329 330 332 333 332 331 332 333 334 335 336 336 336 336 336 336 336 337 337 336 335 335 334 333 332 331 331 332 331 331 332 333 332 332 331 330 330 330 329 329 329 327 326 326 326 326 326 324 323 322 321 318 317 316 315 313 310 308 303 299 297 299 300 300 299 298 298
313 313 314 315 316 316 318 319 319 319 320 321 320 317 318 322 324 324 324 326 329 331 332 332 332 332 333 333 333 334 335 336 337 336 336 336 335 336 336 336 335 335 333 333 332 331 332 332 332 332 332 331 330 330 331 330 330 329 329 329 328 327 326 326 325 325 325 324 323 322 319 317 317 316 314 312 309 305 300 297 297 299 300 300 298 298 297
313 313 314 315 315 317 320 321 321 320 321 323 321 317 318 323 325 325 326 328 331 332 332 332 333 333 333 333 334 335 335 336 337 336 336 336 335 335 335 335 335 334 333 332 331 331 331 331 331 332 332 330 329 329 330 330 329 329 329 328 328 327 326 325 325 325 325 324 322 321 319 317 317 316 313 310 306 301 298 297 297 298 299 298 298 298 298
314 314 314 315 318 319 321 322 321 319 319 321 318 314 318 326 328 326 327 331 333 332 332 333 332 332 332 332 334 335 335 335 336 336 336 336 335 335 335 334 334 333 333 332 331 331 330 330 331 332 331 330 329 329 329 329 328 328 328 327 327 327 325 325 325 324 323 321 319 319 317 316 316 315 312 308 303 299 296 296 297 298 298 297 297 297 298
313 313 314 317 319 320 322 323 322 319 318 319 316 315 322 329 328 326 329 333 333 332 333 332 330 330 332 332 331 333 335 335 336 336 336 336 335 335 335 334 333 333 332 332 331 331 330 330 330 331 331 331 330 328 328 328 328 328 327 326 326 325 324 324 324 323 321 320 318 317 316 316 315 312 309 306 302 298 296 296 296 297 297 297 297 298 298
314 314 315 317 317 319 322 322 320 318 317 317 317 320 326 329 328 328 330 332 332 332 333 332 330 330 331 331 331 333 335 335 335 336 336 336 336 335 334 334 333 332 332 331 331 331 330 329 330 330 330 330 330 328 327 327 328 327 327 326 326 324 323 323 323 322 320 319 318 316 315 314 312 310 307 304 301 298 297 297 297 297 296 297 299 299 298
315 315 316 317 319 321 323 323 320 320 321 321 322 325 327 328 329 330 330 331 331 332 332 332 331 331 331 332 334 334 334 335 335 335 335 335 335 335 334 333 332 332 332 331 331 330 329 328 328 329 329 330 330 330 328 329 328 327 327 327 325 323 322 322 322 322 320 319 317 315 314 312 310 308 306 303 300 299 298 297 297 296 297 299 300 300 298
317 318 319 320 322 323 324 324 324 324 324 325 326 326 326 327 329 330 330 330 330 331 331 331 331 331 331 332 333 333 333 334 334 334 335 335 334 334 334 333 332 332 332 331 330 330 329 328 327 329 330 330 329 328 328 328 328 327 327 327 325 323 322 322 322 321 320 318 316 314 313 311 309 308 306 303 301 300 298 297 296 297 298 301 301 301 300
320 321 322 322 323 323 323 324 325 325 324 325 327 326 325 327 328 328 329 330 330 331 331 331 331 332 331 331 332 332 332 333 333 333 334 334 334 333 333 332 332 331 331 331 330 330 329 327 327 329 329 328 327 326 327 328 328 327 327 327 325 324 323 322 321 320 319 317 315 314 313 311 309 308 306 303 301 299 297 296 296 297 299 301 302 302 302
321 322 323 322 323 324 324 324 325 324 324 325 326 325 325 326 327 327 328 329 330 331 331 331 331 331 331 330 331 331 331 331 332 332 333 333 333 332 332 332 331 331 331 330 330 330 328 327 328 329 329 327 327 329 329 328 328 327 326 326 326 325 323 322 321 320 318 316 314 313 312 311 310 309 306 303 301 299 297 296 297 299 301 302 303 303 303
321 322 323 322 323 324 324 324 324 324 324 324 324 324 325 325 326 326 326 327 328 329 330 331 330 330 330 330 330 330 330 331 331 331 332 332 332 332 331 331 330 330 330 329 330 331 330 329 330 330 329 328 329 330 330 329 328 327 326 326 326 324 323 322 321 319 317 316 314 313 312 311 309 309 306 303 300 298 297 297 298 300 302 302 302 304 304
321 321 322 322 323 323 324 324 324 324 324 324 324 324 324 325 325 324 324 325 327 327 327 328 329 329 330 331 330 330 330 330 330 330 331 331 331 331 330 330 330 329 328 329 331 331 330 330 330 330 329 329 330 330 329 328 327 326 325 325 324 324 323 322 320 318 317 316 314 313 312 311 310 308 306 304 302 299 298 298 299 300 300 300 302 304 304
322 321 322 323 323 322 323 323 323 323 323 324 324 324 325 325 325 325 324 324 325 324 323 325 328 329 329 330 330 330 330 330 329 329 330 330 331 331 330 329 329 328 328 330 330 330 329 330 330 330 330 329 329 329 328 327 326 325 325 324 323 323 322 321 319 317 316 315 314 312 312 311 309 308 307 305 303 302 300 299 298 299 299 300 301 303 304
321 321 322 322 321 322 323 323 323 323 323 324 324 324 324 325 326 326 326 324 324 323 322 324 328 328 326 327 329 330 330 329 329 328 329 329 330 330 329 328 328 328 329 329 330 330 330 330 330 330 329 328 328 327 327 326 325 324 324 323 322 322 321 320 318 317 316 315 313 312 312 311 309 308 307 306 305 304 302 299 298 297 298 299 301 302 303
320 321 321 321 322 323 324 323 323 323 322 323 324 324 324 324 323 325 326 326 325 325 323 323 326 326 325 325 327 329 329 328 328 328 327 328 328 328 328 327 327 328 329 329 329 329 329 329 329 329 328 328 327 326 325 325 324 323 323 323 322 321 321 320 319 318 317 315 314 312 312 311 309 308 308 307 305 305 302 300 299 298 296 296 297 299 301
321 321 321 321 323 324 324 323 323 322 321 323 324 324 323 323 322 323 324 324 325 325 324 323 324 325 325 325 326 326 326 327 327 327 327 327 327 327 327 327 327 328 329 329 328 328 329 328 328 326 326 327 327 325 324 324 324 323 323 322 321 321 320 320 319 318 317 315 314 313 312 310 309 309 309 307 306 304 302 300 301 300 296 295 295 295 298
321 321 321 321 322 323 323 322 322 322 321 322 322 322 322 321 321 322 322 321 322 323 324 323 323 324 325 325 325 325 325 325 325 325 325 325 325 325 325 326 327 328 328 328 328 328 328 328 326 325 325 327 327 325 324 324 324 323 322 321 321 321 320 319 319 318 317 316 314 313 312 311 310 309 309 307 306 305 302 301 301 300 296 294 295 295 296
319 320 320 321 321 321 322 322 322 322 321 321 321 321 321 321 320 320 320 320 320 321 322 323 323 323 324 324 324 324 324 324 324 324 324 324 324 324 324 325 326 327 327 327 327 327 327 327 327 326 326 326 325 324 324 324 323 323 322 321 320 320 320 319 319 318 317 316 314 313 312 311 310 310 308 307 306 305 302 300 301 300 297 294 294 295 295
318 318 320 322 322 322 322 322 322 321 320 320 321 321 320 320 320 320 320 320 320 320 321 322 322 322 323 323 323 324 324 323 323 323 322 322 323 323 324 324 325 326 327 327 326 326 326 326 326 326 325 324 324 323 323 322 322 322 321 320 320 319 319 318 318 318 317 316 315 313 312 311 310 309 308 307 306 304 302 300 300 299 298 295 294 294 294
318 317 319 321 323 323 322 320 320 320 320 320 320 320 320 320 321 321 321 321 320 320 320 320 321 322 322 322 322 323 323 322 321 321 321 321 322 323 323 324 325 326 326 326 326 325 325 325 325 324 324 323 323 322 321 321 321 321 320 319 319 318 317 317 317 317 317 316 315 314 312 311 310 309 308 307 306 304 301 300 300 300 298 296 294 294 294
318 317 318 320 320 320 320 319 320 320 320 319 319 320 321 322 322 323 322 322 321 321 320 320 320 321 321 321 322 322 321 321 320 320 321 321 322 322 323 324 324 324 325 325 325 324 324 324 324 323 323 323 322 321 321 320 320 320 319 318 318 317 317 317 316 316 315 315 314 313 312 311 310 309 307 307 305 303 301 301 300 299 299 298 295 294 294
317 317 317 318 318 318 319 320 321 321 321 320 320 320 321 322 322 322 321 321 321 321 320 320 320 321 321 321 321 321 321 320 320 320 320 321 321 322 323 323 323 323 323 323 324 323 323 323 322 321 321 322 322 321 321 320 319 319 318 318 317 317 316 316 316 315 314 314 313 313 312 311 310 308 307 306 304 303 302 301 299 297 299 300 297 294 294
317 316 317 317 318 318 320 320 320 321 320 320 321 321 321 321 321 321 321 321 321 319 319 319 320 320 321 320 320 320 320 320 319 319 319 320 321 321 322 322 322 322 322 322 322 322 322 322 321 320 320 321 321 321 320 320 319 318 318 318 317 317 316 315 315 314 314 313 313 312 311 310 308 307 305 304 303 302 302 302 298 295 297 299 298 295 295
317 317 317 317 318 319 319 319 319 320 320 320 320 320 320 320 321 321 321 320 318 317 317 318 319 319 320 320 320 319 319 319 319 318 318 318 319 319 319 319 319 320 320 321 320 320 321 321 321 321 321 321 320 320 319 319 318 318 317 317 316 316 315 314 314 313 313 313 312 312 311 310 308 307 304 303 303 303 302 301 298 295 294 296 296 294 295
318 318 318 318 318 319 319 319 319 319 318 318 319 319 318 318 319 320 319 318 317 318 318 317 316 318 319 320 319 319 319 319 318 318 317 317 317 317 317 317 317 317 317 318 318 318 318 318 319 319 319 319 319 319 318 318 317 317 317 316 315 315 314 313 313 313 312 312 312 311 310 308 307 306 304 303 303 303 302 300 298 295 294 294 294 294 295
316 317 317 317 317 318 319 319 318 318 317 317 317 317 317 317 318 319 318 317 318 318 317 315 314 315 317 319 319 319 319 319 318 318 317 317 316 316 316 316 316 317 316 316 316 316 316 316 316 317 317 317 317 317 317 316 315 315 315 315 315 314 313 313 312 312 312 311 311 310 308 306 305 305 304 304 304 303 302 300 298 297 296 296 295 295 296
314 314 314 314 314 315 317 317 317 317 317 317 317 317 317 317 318 318 318 318 318 317 315 314 314 314 316 317 318 318 318 318 318 318 317 317 316 316 316 316 316 316 316 316 315 315 315 316 316 315 315 315 315 315 315 314 314 313 314 314 313 313 313 312 312 311 311 310 310 309 307 305 304 304 304 304 304 304 303 301 300 299 298 299 299 298 298
313 313 313 312 312 312 313 314 314 315 316 316 316 316 316 317 317 317 318 318 317 316 315 314 314 314 315 316 316 316 316 317 317 317 317 316 315 315 314 315 315 314 314 314 314 315 315 315 315 315 314 314 313 313 313 313 312 312 312 312 312 311 311 311 311 311 310 309 308 307 306 305 304 304 304 304 304 303 303 302 301 300 300 300 301 300 299
311 312 312 312 311 311 311 311 312 313 314 314 315 315 316 316 316 316 317 317 317 317 316 315 314 314 314 314 313 312 313 314 316 316 316 315 315 314 313 313 313 313 313 314 314 314 315 314 314 313 313 313 312 312 312 311 311 311 310 310 310 310 310 309 309 309 309 307 306 305 305 304 304 304 304 304 303 303 302 302 301 301 301 301 302 301 300
310 311 311 311 311 311 310 310 311 312 313 313 314 314 314 315 315 315 315 315 316 316 315 314 313 313 312 312 312 311 311 311 314 315 315 315 314 314 313 312 312 312 312 312 312 313 313 313 312 312 312 311 311 311 311 310 310 309 309 309 309 308 308 308 308 308 308 306 305 304 304 304 304 304 303 303 303 303 302 301 301 301 301 301 301 301 300
310 310 309 309 310 310 310 310 310 311 311 312 312 313 313 313 313 313 313 313 313 313 312 311 311 311 311 312 312 312 310 310 312 314 315 314 314 313 313 312 312 312 312 312 312 312 312 312 311 310 310 310 310 310 309 308 308 308 308 307 307 307 307 308 307 307 306 305 304 304 303 303 303 303 303 303 302 301 301 301 300 300 300 301 300 300 300
309 309 308 308 309 309 309 309 309 310 310 310 311 311 311 311 311 312 311 311 310 310 310 310 310 311 312 312 312 312 311 311 313 314 314 313 313 313 312 312 312 312 311 311 311 311 310 310 309 309 309 309 309 308 308 307 307 307 307 307 306 306 307 307 306 305 304 303 303 303 303 302 303 302 302 302 300 299 298 298 298 298 299 300 300 300 300
309 308 307 307 308 309 309 309 309 309 309 309 309 309 310 310 310 311 310 309 309 309 309 310 310 311 311 311 311 311 311 312 313 313 313 312 312 312 311 310 310 310 310 310 310 310 309 309 308 307 307 307 307 307 306 306 306 306 307 306 306 306 306 306 305 304 303 302 302 302 302 302 302 301 301 300 299 298 297 297 298 298 299 300 300 301 301
309 308 307 307 308 309 309 309 309 309 309 309 309 309 309 309 310 310 310 309 309 310 310 310 310 311 311 310 311 311 311 311 312 312 311 311 311 311 310 310 309 309 309 309 309 309 308 307 307 306 307 307 307 306 306 306 306 306 306 306 305 305 305 304 303 302 302 301 301 301 301 301 301 300 300 300 299 299 299 299 300 300 300 301 300 300 298
309 308 308 308 308 308 308 308 309 308 308 308 308 309 309 309 309 309 310 309 309 310 310 310 310 310 310 311 311 311 311 310 310 310 310 310 310 310 309 309 309 309 309 309 308 308 307 307 306 306 306 306 306 306 305 305 305 305 305 305 304 303 303 302 301 301 301 301 301 300 300 300 300 300 300 300 300 300 300 300 300 300 300 299 299 299 298
308 308 308 308 308 308 308 308 308 308 308 308 308 309 308 308 308 309 309 309 309 309 310 310 311 311 310 310 311 312 311 310 309 309 309 310 310 310 309 309 308 308 308 308 307 306 306 306 305 305 305 305 305 305 304 304 304 304 303 303 302 301 301 301 300 300 300 300 300 299 299 300 300 300 300 300 300 300 299 299 298 298 298 298 299 299 299
309 308 307 307 308 308 308 308 308 308 308 308 308 308 308 308 308 308 308 308 309 309 310 310 311 311 311 310 310 310 310 309 308 308 309 309 309 309 309 308 308 307 307 307 306 305 305 305 305 305 305 304 304 304 303 303 302 302 301 301 301 301 300 300 300 300 299 299 299 300 300 300 300 300 299 299 299 299 299 299 299 299 299 299 300 300 300
308 307 306 306 308 308 308 307 306 307 307 307 307 307 307 308 308 308 307 308 308 308 309 309 310 310 310 310 309 308 308 308 307 308 308 308 308 308 308 307 307 307 306 306 305 305 305 305 305 304 304 304 303 303 302 302 301 301 301 301 300 300 299 299 299 299 299 300 300 300 301 300 300 299 299 299 299 300 300 300 301 300 300 301 301 301 301
308 306 306 307 308 308 307 305 305 305 306 307 307 307 307 307 308 307 307 307 307 308 308 309 309 310 310 309 308 307 308 308 307 307 307 307 307 307 307 306 306 306 306 305 305 304 304 304 304 304 303 303 302 302 301 301 301 301 301 301 300 300 299 299 299 299 299 299 300 300 300 300 300 299 299 300 300 301 301 301 301 301 301 301 301 301 301
308 307 307 307 308 307 306 305 306 306 307 307 307 307 307 307 307 307 307 307 307 307 308 308 309 309 309 308 308 307 307 307 307 307 307 306 306 306 306 305 305 305 305 304 304 304 304 303 303 303 302 302 302 302 302 301 301 301 301 301 301 301 300 300 300 300 299 299 299 300 300 300 300 300 300 301 301 301 301 300 300 300 300 300 300 301 301
307 308 308 307 306 306 306 307 307 307 307 307 307 306 306 307 307 307 307 307 307 307 308 308 308 308 308 308 307 307 307 307 307 307 306 306 305 305 305 305 305 304 304 303 303 303 303 303 302 302 302 301 301 302 302 302 301 302 302 301 301 301 301 301 301 301 300 300 300 300 301 301 301 302 302 301 301 301 301 301 300 300 300 300 300 300 301
307 308 308 307 305 306 307 308 307 306 306 307 307 306 306 307 307 307 306 307 307 307 307 307 307 307 307 307 307 306 307 307 307 307 306 305 305 305 304 304 304 303 303 303 303 303 302 302 302 302 301 301 301 301 302 302 301 301 301 301 301 301 301 301 301 301 301 300 300 301 301 301 301 301 301 301 301 301 301 301 301 301 301 301 301 300 300
306 307 307 307 306 306 307 307 306 306 307 307 306 305 305 306 307 306 306 306 307 307 306 307 307 307 306 306 306 306 306 306 306 306 306 305 305 304 304 304 303 303 303 303 303 302 302 302 302 301 301 301 301 301 301 301 301 301 301 301 301 301 301 301 301 301 301 300 300 300 300 300 300 300 301 301 301 301 301 301 301 301 301 301 300 300 300
306 306 307 306 306 306 306 306 305 306 306 307 306 306 306 307 307 306 306 306 306 306 306 307 307 307 306 306 306 306 306 306 306 306 305 305 304 304 304 304 303 303 303 303 302 302 302 301 301 301 301 301 302 301 301 301 301 301 302 302 302 301 301 301 301 301 300 300 300 300 300 300 300 300 301 301 301 301 301 301 301 300 300 300 300 300 300
Wind_Speed
11 9 11 14 14 14 14 14 16 16 17 18 17 15 10 7 6 2 6 5 4 6 6 2 4 6 8 9 10 12 14 17 19 20 21 23 24 26 28 28 28 27 27 28 30 31 30 28 27 28 27 27 28 24 21 23 25 26 26 25 23 21 21 23 24 24 24 22 20 20 17 17 17 15 15 12 8 9 14 15 16 17 17 16 17 17 19
10 9 11 15 16 15 14 14 15 16 16 16 16 17 14 11 9 4 5 6 6 6 6 3 4 5 7 9 11 13 15 18 20 21 22 24 25 27 28 28 27 27 28 29 30 32 32 30 29 29 29 32 30 24 22 25 29 29 28 26 25 23 21 21 24 25 24 22 20 19 18 18 18 16 14 10 9 13 15 15 17 18 17 17 17 18 20
11 10 11 15 17 16 15 15 15 16 16 15 15 16 14 12 11 7 5 6 3 5 5 3 5 5 7 9 12 14 17 19 21 21 23 24 25 26 27 27 26 26 29 29 30 33 34 33 31 30 33 35 29 24 25 27 29 29 27 27 26 24 20 19 22 24 23 22 21 20 21 20 18 16 13 11 13 16 16 16 18 19 18 18 18 18 21
10 12 12 13 15 15 15 17 18 17 16 15 14 14 14 12 12 10 7 6 1 5 4 3 4 5 7 9 12 15 17 20 21 21 22 23 24 26 27 28 26 25 28 29 31 33 34 34 31 30 35 35 28 27 29 28 29 29 27 28 27 24 19 17 20 24 24 24 24 22 22 21 18 15 13 13 15 17 18 18 19 19 19 19 19 20 22
9 13 14 12 13 12 11 14 18 18 16 14 14 16 16 13 10 8 6 2 4 5 3 3 4 5 6 8 11 14 17 19 20 20 20 22 24 25 27 29 26 24 25 26 30 33 33 34 32 29 32 33 29 31 30 26 29 29 27 29 28 22 18 17 20 24 26 26 24 22 21 20 17 15 15 15 17 18 19 19 20 20 20 19 19 20 22
9 14 14 11 11 10 5 6 14 18 18 16 15 16 16 13 9 7 4 3 3 3 2 2 2 5 6 7 11 13 15 17 18 18 19 20 22 24 25 27 25 24 24 25 29 33 33 33 31 27 28 32 34 33 27 24 28 29 28 31 30 23 21 20 20 24 26 25 24 22 22 20 17 16 17 18 18 19 20 20 21 21 20 19 19 20 22
8 11 11 10 9 5 3 3 6 10 13 16 16 15 14 12 11 10 7 5 3 2 2 1 1 4 6 7 9 12 13 15 15 16 17 18 21 22 23 25 25 24 23 24 27 30 31 33 31 25 27 34 35 31 24 23 28 29 29 34 32 25 24 23 22 23 24 24 24 23 21 19 18 18 19 20 21 21 21 21 22 22 21 20 20 21 23
8 9 9 7 6 6 7 5 5 6 7 11 13 12 10 7 8 8 6 4 2 2 1 1 2 4 6 6 8 10 12 12 13 14 15 17 20 21 22 24 25 23 22 22 24 26 28 31 28 23 28 33 30 27 26 25 28 30 32 34 32 27 25 24 22 23 24 24 24 23 20 19 21 22 22 22 23 22 22 22 23 22 21 21 21 23 24
7 9 8 6 6 8 7 6 6 5 5 8 9 8 7 4 4 5 5 3 1 2 1 2 4 6 7 5 7 10 11 11 11 12 14 16 19 20 21 22 22 21 20 21 23 25 27 27 24 24 30 31 25 26 28 25 26 32 34 33 31 27 24 21 20 22 25 25 24 22 21 22 24 24 23 24 24 24 24 24 25 24 23 23 23 24 24
7 8 8 7 7 7 6 6 6 3 0 2 4 6 5 5 3 3 4 3 3 4 3 4 7 8 6 3 6 11 13 11 10 12 14 16 18 19 21 21 20 19 19 19 21 24 25 25 24 26 29 26 21 25 29 25 26 33 35 33 32 29 24 21 20 21 23 23 22 21 23 25 25 24 25 26 26 25 25 26 27 26 26 25 25 24 23
8 8 7 7 5 5 5 7 7 4 1 2 2 5 6 5 4 3 4 4 6 7 7 8 7 5 3 3 5 11 14 13 11 12 14 16 17 18 20 21 21 20 19 18 19 21 23 25 25 25 25 22 21 25 28 26 28 34 36 35 33 31 27 24 24 24 23 22 22 22 24 26 25 25 27 28 27 26 26 26 27 26 25 24 23 23 22
8 7 7 6 4 5 6 6 6 4 4 5 6 8 5 5 4 4 5 6 8 9 11 10 5 0 2 4 5 9 14 14 14 14 14 16 17 17 17 19 20 19 18 19 19 19 20 22 25 26 24 22 22 23 25 28 30 33 36 36 35 33 30 27 26 25 24 24 25 25 26 27 27 27 28 28 28 28 27 26 25 25 24 23 22 23 23
7 7 7 6 5 5 5 5 4 4 6 7 8 5 2 5 5 5 6 8 10 11 11 8 3 5 5 4 4 10 14 15 15 14 14 15 16 16 16 17 18 18 18 18 18 18 18 19 23 25 25 26 25 23 24 28 30 30 32 36 35 32 30 26 24 23 24 24 25 26 27 27 26 27 27 28 28 27 26 26 26 25 25 25 24 24 24
5 5 6 6 6 4 5 5 4 4 5 5 4 3 4 5 6 8 8 10 12 11 8 5 6 7 8 6 8 14 15 15 15 14 14 15 15 16 16 17 18 18 17 17 17 16 17 18 21 23 24 26 27 25 24 25 25 25 29 34 33 29 27 26 24 24 25 24 23 24 25 24 25 26 27 27 28 28 27 27 27 27 27 26 25 24 24
3 6 6 5 6 4 7 4 3 3 1 4 6 6 5 7 9 10 10 11 12 10 7 7 8 8 10 10 11 13 14 14 14 13 13 14 15 16 16 16 17 17 17 17 17 17 16 17 19 21 23 25 26 26 25 23 21 22 26 30 30 27 26 26 25 24 24 22 21 22 23 24 26 27 27 27 28 27 27 28 29 28 27 27 26 25 25
2 4 5 3 3 5 8 6 4 6 7 7 7 7 7 9 9 9 10 11 11 9 8 7 5 7 9 10 9 10 12 12 13 13 13 14 15 16 16 15 16 16 16 16 18 17 16 15 17 20 24 25 23 24 25 24 22 22 23 25 27 27 27 27 26 24 23 22 22 22 23 25 27 27 26 27 26 26 28 29 30 30 29 28 27 26 25
3 4 6 4 5 7 9 10 11 12 11 9 8 9 10 10 9 10 10 10 9 9 8 6 3 3 5 6 7 8 9 11 12 13 14 15 16 15 14 15 15 16 16 16 17 18 16 14 15 18 21 23 22 22 25 24 22 22 23 23 25 27 27 27 27 25 24 23 22 22 23 26 27 26 25 25 25 26 28 30 30 30 29 27 26 26 25
4 6 7 6 7 9 11 11 12 12 11 10 10 11 11 10 10 11 11 10 9 8 7 6 4 4 5 6 6 7 7 10 12 12 13 14 14 14 14 15 15 16 16 15 16 18 17 15 15 16 19 22 23 23 25 24 21 21 23 23 24 26 27 27 27 27 26 24 22 22 23 25 25 23 23 25 26 28 29 30 29 28 27 26 26 24 24
3 5 7 7 7 8 9 9 11 12 12 12 12 12 12 11 11 12 13 12 11 9 7 6 6 6 7 7 7 7 7 8 11 13 14 13 12 13 14 14 15 16 16 16 16 18 17 16 17 18 19 22 23 23 24 25 23 22 23 23 24 26 26 27 28 28 27 25 24 24 24 25 25 24 23 25 27 28 30 30 29 27 26 26 25 23 22
3 3 5 5 6 9 10 10 10 10 11 12 12 12 12 12 13 14 15 13 11 10 9 8 7 7 8 8 9 9 8 8 10 12 13 12 12 13 14 14 15 16 16 17 17 17 17 17 18 19 20 21 21 21 22 24 24 23 23 23 23 24 27 29 29 29 28 25 24 25 26 26 27 25 24 25 27 28 29 30 29 27 26 26 25 23 21
2 2 4 4 5 8 10 11 11 10 10 10 11 12 12 11 12 14 15 15 14 13 13 11 8 7 8 8 9 10 10 10 10 10 11 12 13 14 14 14 16 15 15 16 17 16 17 17 17 17 18 18 19 20 20 21 21 22 22 23 24 26 29 30 29 29 28 26 25 26 27 28 28 26 25 26 26 25 26 28 28 27 25 25 24 22 20
2 3 4 5 3 4 7 10 11 10 10 10 11 12 12 11 11 11 12 14 15 15 15 13 9 7 8 8 9 9 9 10 10 10 11 12 13 14 13 14 15 15 14 15 17 18 18 17 16 16 16 16 16 18 19 20 20 20 20 22 25 26 28 30 29 29 29 27 25 26 28 29 29 27 27 27 26 24 24 26 26 25 24 23 23 22 20
2 3 4 4 3 3 5 8 9 9 9 10 11 11 12 12 12 11 11 12 12 13 14 13 11 10 9 8 9 9 9 9 9 10 10 12 13 14 14 14 15 17 17 16 17 18 18 16 15 16 16 15 15 16 18 19 19 19 20 21 25 27 28 28 28 27 27 26 26 27 28 29 29 29 29 28 26 24 24 23 22 22 23 23 24 23 20
3 4 4 3 2 2 4 5 5 6 6 7 9 9 9 10 11 11 11 11 11 11 12 12 11 11 10 8 8 8 8 8 8 9 9 10 11 13 14 14 15 18 19 18 17 17 18 17 16 16 16 15 15 15 16 17 18 19 19 20 23 26 27 27 27 27 27 27 26 27 28 30 31 30 29 27 26 24 23 21 21 21 21 21 22 22 21
2 4 4 2 1 2 2 2 3 4 5 5 6 6 7 8 9 10 10 10 10 10 10 9 9 10 10 8 7 6 7 6 7 8 8 9 10 11 13 15 16 16 17 17 17 17 18 18 17 16 14 13 13 13 14 16 18 18 18 19 21 23 25 27 27 27 27 27 27 27 28 30 31 31 29 27 26 25 24 22 21 21 21 21 21 20 20
3 3 2 0 1 0 1 2 3 3 3 4 4 4 5 6 7 8 8 8 9 9 8 8 7 7 8 8 7 6 5 5 7 7 7 8 11 11 12 14 15 15 16 17 17 17 17 17 17 15 12 11 11 12 13 16 18 18 18 19 20 20 21 24 25 26 26 26 27 29 29 29 30 30 29 28 27 26 25 24 23 23 23 23 22 21 20
3 2 1 1 2 3 2 1 1 2 3 3 4 5 5 5 6 6 7 7 8 8 7 7 7 6 6 7 6 5 6 6 6 6 6 8 11 11 10 12 14 15 16 17 16 16 15 16 16 15 14 13 12 12 12 14 16 17 18 19 19 19 20 22 23 25 26 26 27 29 29 29 29 29 29 29 28 27 25 24 25 24 23 23 23 22 21
2 2 2 2 1 3 3 3 3 4 4 5 6 6 5 5 6 6 6 7 7 7 7 7 7 7 7 6 5 5 5 5 6 7 8 11 12 12 11 12 14 15 15 15 15 16 15 14 14 15 16 15 13 13 14 14 15 16 17 17 18 19 21 23 24 25 26 26 26 27 27 27 28 29 29 29 28 25 23 23 24 23 21 21 22 21 20
2 2 3 2 1 3 5 4 4 5 6 6 7 6 5 5 6 6 6 7 7 7 7 7 7 7 7 6 5 4 5 5 6 9 11 12 13 12 11 11 12 13 14 14 15 15 15 15 14 15 16 15 13 13 14 15 16 17 17 18 19 20 21 24 26 26 26 26 27 26 25 26 27 28 28 27 25 22 21 22 23 21 19 19 21 22 22
2 2 3 3 3 4 4 3 4 5 6 7 6 5 5 5 5 6 6 7 7 7 7 7 7 7 6 6 5 5 5 5 6 9 12 13 12 12 11 11 10 11 13 14 14 14 15 16 15 14 15 15 15 15 15 14 15 16 17 19 20 20 20 23 25 25 25 26 27 26 25 26 26 26 27 25 23 22 21 22 23 22 18 18 21 23 24
2 2 2 3 3 3 3 3 4 5 6 6 5 5 5 5 5 6 7 6 7 7 7 6 6 6 6 6 6 6 6 6 6 8 10 11 12 12 10 9 9 9 9 11 12 13 15 17 15 13 13 13 14 14 14 14 15 15 17 18 18 18 19 21 23 23 24 25 25 25 26 26 26 26 26 25 24 23 21 20 22 23 21 19 22 24 24
3 3 3 3 3 4 3 3 3 4 5 5 5 5 6 6 5 5 6 6 7 7 6 5 4 4 5 5 5 6 6 7 7 8 9 10 10 11 10 8 8 8 8 9 9 10 12 14 15 13 11 10 11 11 12 13 14 14 15 17 18 18 19 21 22 23 23 23 23 24 25 26 26 25 25 24 23 22 21 21 22 24 23 22 23 24 24
2 3 3 2 2 3 3 2 2 4 5 6 6 7 8 8 6 5 6 7 6 6 6 5 4 3 4 5 5 6 7 7 7 8 8 8 9 9 9 8 7 8 9 9 9 9 9 9 11 11 11 10 11 10 11 12 14 15 15 16 16 18 19 21 22 23 22 22 23 23 23 24 24 24 24 24 23 22 21 22 23 23 23 23 24 24 24
2 2 3 3 2 2 2 3 3 4 5 7 8 9 9 8 7 7 8 7 5 5 5 5 4 3 3 4 5 5 6 7 7 7 7 7 8 9 9 8 8 9 10 10 10 9 9 9 9 10 10 10 11 11 11 11 13 15 16 15 14 16 19 20 22 22 21 21 22 22 22 22 23 24 25 24 23 22 21 22 23 23 23 23 23 23 23
6 5 5 5 4 4 5 4 4 5 5 6 7 8 8 9 8 8 9 8 7 6 6 5 4 4 3 3 4 4 5 6 8 8 8 8 7 7 7 7 8 8 9 9 8 8 9 10 10 9 9 9 10 10 11 11 12 14 14 13 13 15 17 19 20 21 20 20 20 22 22 22 22 23 24 24 22 22 21 22 22 22 23 22 20 20 21
6 5 5 4 4 4 4 4 4 5 5 5 6 6 7 8 8 8 9 9 9 8 7 7 5 5 5 4 4 3 3 5 8 9 10 9 8 6 6 7 6 6 7 7 7 8 10 11 11 11 11 10 10 10 11 12 13 13 13 13 13 15 16 18 19 20 19 18 19 21 22 21 21 22 23 22 22 21 21 21 21 21 20 20 18 18 20
5 5 4 4 4 3 2 2 2 3 3 4 5 6 6 6 7 7 7 7 8 8 8 7 6 6 5 4 2 1 1 2 5 8 10 10 9 8 7 7 6 6 5 5 7 10 12 12 12 12 13 12 12 12 12 13 13 13 12 12 13 14 15 16 18 19 19 18 17 18 19 19 20 21 21 21 20 20 20 19 19 19 19 18 17 17 18
5 5 4 4 4 3 2 1 1 1 2 2 3 4 5 6 6 6 6 6 7 8 7 6 6 5 5 3 2 3 4 2 3 6 9 9 9 9 9 7 7 6 5 6 8 11 12 12 13 13 14 14 14 13 13 12 12 11 11 11 12 13 13 15 17 18 19 18 17 16 17 18 19 20 20 19 19 19 19 18 18 19 18 17 16 16 16
3 3 3 2 1 1 1 1 1 2 2 3 3 3 4 6 6 5 5 6 7 7 6 4 4 3 2 2 2 4 5 5 6 7 8 8 9 9 8 8 9 9 8 9 11 11 12 12 12 12 13 14 14 14 13 12 12 11 11 11 12 12 13 15 16 17 17 16 17 17 17 18 19 19 19 18 18 18 18 18 18 18 17 16 15 16 15
1 1 2 2 1 1 1 1 1 2 2 2 3 3 5 6 5 4 4 5 6 6 6 7 6 5 5 4 3 3 4 6 9 10 9 9 9 8 6 7 10 11 11 11 12 12 12 12 11 11 12 14 14 14 13 13 13 13 13 12 12 12 14 15 15 14 14 15 16 17 17 17 17 17 18 18 18 18 18 18 17 17 17 16 16 16 15
2 1 2 2 1 1 1 1 1 2 2 1 2 2 2 4 4 4 5 6 7 7 7 8 7 6 6 6 5 4 4 6 10 11 11 10 8 6 5 6 9 11 11 12 13 14 14 14 13 12 13 14 14 13 13 13 13 13 13 13 12 13 14 14 14 14 14 15 16 16 16 16 16 17 18 19 19 18 18 17 16 15 15 15 15 15 14
2 1 2 3 2 2 2 2 2 2 1 0 1 1 1 2 3 3 4 5 5 5 6 6 6 6 6 5 6 5 5 6 8 10 9 8 7 5 4 6 10 11 11 12 13 14 15 15 15 15 14 14 14 13 13 13 14 15 15 15 15 14 14 14 14 14 15 15 15 15 16 16 17 18 18 18 17 16 15 14 13 13 13 14 14 13 13
1 1 0 1 1 1 1 1 2 2 2 1 1 1 0 1 1 2 2 3 3 4 4 4 4 4 4 5 6 8 8 7 7 8 7 7 7 6 5 8 10 11 11 13 14 15 16 16 15 15 15 15 15 15 15 14 15 16 16 16 15 15 14 14 14 14 15 15 15 16 16 17 17 17 16 15 14 13 13 12 12 13 13 14 13 12 12
1 1 2 1 1 1 1 1 1 1 1 1 1 1 1 1 1 1 1 2 2 3 3 4 4 5 5 6 8 10 10 8 7 7 8 9 9 8 8 10 11 12 14 14 13 13 15 16 16 16 16 16 15 15 15 14 14 15 15 15 15 15 15 15 15 15 15 15 16 16 17 17 16 16 16 15 14 13 12 12 12 12 12 12 12 12 12
3 3 3 2 1 2 2 1 1 2 2 0 1 2 3 2 1 1 1 2 2 2 3 4 5 7 7 7 8 8 8 7 6 6 7 8 8 9 11 12 13 14 16 14 11 10 13 16 16 15 15 15 14 13 14 14 14 15 15 15 15 15 15 15 15 15 16 17 18 18 18 18 16 15 15 14 14 12 12 11 11 11 11 12 12 12 12
7 5 4 3 3 3 3 2 2 2 2 1 1 1 2 2 1 0 1 2 2 2 3 4 6 8 9 9 8 7 7 6 6 6 7 8 10 12 14 15 15 16 16 13 10 11 14 16 15 13 13 13 12 12 13 13 14 15 16 15 15 14 14 14 15 16 17 19 19 19 18 16 15 15 15 14 13 12 11 11 11 11 11 12 13 13 12
9 7 5 5 5 5 4 3 2 2 2 3 2 1 2 2 1 0 1 2 2 2 4 6 7 8 10 10 9 7 6 6 6 8 9 10 12 14 16 16 17 17 16 14 14 15 16 15 14 14 13 13 12 12 12 13 13 14 14 14 14 13 14 14 14 15 16 17 17 17 17 16 16 16 16 15 14 13 12 11 11 11 11 12 13 13 13
9 7 7 7 6 5 3 2 1 2 2 0 0 1 3 2 1 1 1 2 2 3 5 8 9 10 11 11 10 9 9 8 8 10 12 13 15 17 17 17 18 18 17 17 16 16 15 14 14 14 14 13 13 12 12 12 13 14 14 14 14 13 13 12 11 11 12 14 15 15 15 15 15 15 15 16 16 15 14 13 12 11 12 13 14 14 16
8 7 8 8 7 5 4 3 3 3 2 2 2 1 2 1 0 1 1 2 3 3 6 8 10 11 13 13 11 10 10 10 10 11 14 16 17 18 18 18 19 19 19 18 17 15 13 13 14 15 15 14 12 12 13 14 14 14 14 14 13 12 11 10 10 10 11 12 13 14 14 13 13 13 13 14 15 15 13 12 12 12 13 13 14 15 16
6 7 8 9 8 7 6 5 4 2 2 2 2 1 2 2 0 2 2 3 3 4 5 7 8 9 11 11 11 10 10 11 13 15 17 18 18 19 19 19 19 18 18 17 15 14 14 14 15 16 15 13 12 12 13 14 14 14 14 14 13 11 11 11 11 10 10 10 11 13 13 12 11 11 12 12 13 14 15 14 14 13 12 13 13 13 13
5 5 7 8 8 8 6 4 3 2 2 3 3 1 1 1 2 3 2 2 3 4 5 6 7 7 8 9 8 8 9 11 14 17 19 19 19 19 19 18 17 17 16 15 14 14 15 16 18 17 15 13 12 13 14 14 14 14 15 14 12 11 11 10 10 10 11 11 11 11 11 11 11 12 13 13 13 15 16 16 15 14 13 13 13 13 13
4 5 5 6 8 8 6 4 3 3 3 4 4 3 2 2 2 3 3 2 3 4 5 6 7 8 9 8 7 7 8 11 15 18 19 18 18 18 17 17 16 15 13 13 14 14 15 17 19 18 15 13 12 13 15 15 15 15 14 13 12 12 13 12 11 11 13 13 13 12 12 12 12 13 13 12 13 14 15 15 15 15 14 13 13 12 11
Wind_Direction
211 190 173 176 183 188 192 191 192 192 194 201 209 217 220 222 223 145 70 38 351 12 24 52 141 156 165 166 168 167 166 167 168 168 171 173 175 176 176 176 177 175 175 177 178 177 175 174 177 182 185 186 188 191 185 179 181 179 176 178 182 182 182 185 188 188 185 182 180 176 177 186 192 193 196 202 208 192 179 176 177 177 176 174 172 169 168
203 196 180 176 179 184 187 190 190 190 195 201 209 218 223 231 251 292 12 344 336 20 26 38 98 135 157 161 168 172 171 172 172 173 176 176 177 177 177 176 175 175 175 174 173 175 181 185 184 183 183 183 186 192 189 183 180 178 180 185 186 182 180 185 190 191 188 185 180 178 185 192 192 192 196 202 198 184 181 181 179 177 176 176 175 173 171
193 196 188 178 180 184 184 186 188 186 190 199 209 219 222 228 247 265 297 300 319 58 54 66 99 131 156 163 173 177 177 176 176 177 178 178 177 177 176 173 171 174 176 175 176 179 184 186 183 182 183 183 185 189 187 183 180 180 187 192 187 182 180 182 188 188 186 186 184 184 189 191 190 192 196 198 191 183 184 185 180 178 178 177 176 175 174
181 187 191 180 180 186 188 189 190 188 189 193 205 220 225 228 237 240 252 272 9 74 71 96 122 155 167 170 177 179 180 180 180 180 180 179 177 174 174 172 168 171 174 176 179 181 180 181 182 183 184 183 183 185 183 183 183 185 193 194 186 181 180 180 183 185 186 188 186 186 189 189 190 194 193 190 187 184 187 187 181 180 181 180 179 178 178
165 178 189 179 175 186 196 196 192 188 188 190 200 218 227 230 235 236 244 288 59 75 97 128 145 172 177 176 179 181 183 183 183 183 180 178 177 174 174 172 167 168 170 170 175 179 179 180 182 182 184 184 182 182 184 188 188 190 196 193 184 180 180 181 185 189 192 190 186 187 189 189 193 195 190 189 188 187 190 188 183 183 183 182 181 180 180
158 169 179 177 180 188 189 188 190 191 191 189 195 215 227 230 233 239 268 339 34 77 119 133 156 178 180 181 181 182 184 184 183 182 177 175 176 175 174 173 169 169 170 168 172 179 182 184 184 185 189 188 183 181 186 193 193 194 196 191 185 181 180 183 192 196 193 189 187 189 191 192 195 194 191 192 192 191 192 189 186 186 185 182 181 181 183
150 158 171 179 187 179 91 99 171 185 193 195 199 214 226 232 238 243 263 297 335 49 91 114 165 179 177 181 181 178 181 182 180 179 175 170 171 172 174 175 173 170 171 172 173 175 180 184 185 186 191 190 185 183 186 192 196 195 192 190 187 183 182 185 190 193 191 189 190 192 193 193 193 194 196 196 194 194 193 191 188 187 185 182 180 181 184
143 159 174 173 154 110 93 110 133 139 179 197 201 213 223 237 255 258 263 279 343 46 101 174 169 173 171 180 186 179 177 177 174 175 174 167 166 170 173 177 176 171 171 173 172 172 180 185 185 184 188 190 190 189 185 190 197 193 188 189 188 183 182 182 184 192 196 194 193 194 196 196 194 197 199 196 195 195 193 190 189 187 185 183 180 181 184
157 164 158 144 133 123 118 130 142 147 183 196 200 215 218 216 252 270 272 265 120 99 171 159 141 155 157 171 192 185 178 176 169 166 168 168 168 168 169 173 175 171 170 175 180 184 189 189 188 189 188 187 192 193 187 190 199 192 184 187 188 185 183 183 188 198 201 196 193 196 199 198 197 198 198 195 195 196 193 190 189 187 185 183 181 182 182
168 163 147 144 153 143 123 114 116 115 197 178 195 222 205 173 186 242 259 240 149 141 155 142 145 159 161 166 188 184 180 178 169 159 158 163 168 168 167 169 171 171 174 178 182 187 189 188 189 190 185 183 191 196 191 193 199 192 186 187 189 187 187 189 193 200 202 199 197 198 199 201 200 199 197 195 195 194 193 192 190 188 187 184 181 181 181
163 164 152 147 139 108 97 101 99 93 87 108 168 216 194 153 149 202 225 188 152 148 149 149 159 179 167 107 140 168 176 174 166 158 154 158 165 168 171 173 174 177 180 176 173 178 186 191 192 188 185 187 194 197 196 196 197 195 192 191 190 189 188 189 193 197 199 199 197 198 202 204 203 200 197 194 192 192 192 192 191 189 187 184 180 180 179
167 172 150 130 98 77 83 82 77 96 138 150 183 199 170 109 118 174 191 165 148 145 150 156 166 204 49 56 96 148 164 164 160 159 158 159 163 165 170 173 173 174 175 170 168 174 182 189 190 187 189 196 196 194 196 196 196 199 198 194 193 192 190 189 193 194 194 194 195 199 203 203 201 199 195 192 191 191 190 188 188 187 184 183 181 179 179
167 168 140 114 89 73 60 44 53 111 154 173 189 189 94 58 91 142 160 149 140 144 154 154 99 39 30 26 119 149 155 157 158 159 159 162 164 167 171 170 168 169 171 170 172 175 177 184 190 193 197 201 197 193 193 196 200 204 203 199 198 195 191 190 193 194 194 196 198 202 204 202 198 194 191 192 191 189 187 184 184 186 186 185 184 182 182
152 147 132 117 105 65 7 15 82 131 171 173 150 96 36 43 83 115 134 138 139 145 148 117 70 48 36 54 125 148 150 152 156 157 159 163 164 167 176 176 169 169 173 174 174 174 175 183 194 199 200 200 199 196 195 199 204 206 204 203 201 195 190 191 194 194 196 198 200 204 204 199 193 189 190 192 191 188 187 186 186 188 188 186 186 187 188
152 147 138 131 115 54 352 349 132 142 117 109 101 81 56 57 80 105 120 129 139 146 135 100 75 53 44 62 106 137 145 148 154 158 163 166 163 166 179 182 172 168 172 174 173 172 174 181 191 199 201 201 202 203 203 205 205 204 204 205 203 195 192 195 197 196 197 199 200 202 200 195 192 191 191 192 190 189 189 188 188 190 189 186 188 192 194
185 140 114 101 83 34 6 13 77 73 56 68 83 81 73 67 73 91 106 119 133 139 137 126 91 56 51 63 91 125 140 149 158 163 166 170 169 172 180 181 172 169 172 173 173 174 179 184 189 198 203 203 201 202 205 207 207 206 207 207 203 198 197 200 200 198 198 202 202 201 198 195 193 194 194 193 192 190 188 188 188 189 189 187 190 194 196
42 68 77 75 61 49 44 53 70 75 72 69 69 75 79 73 68 78 96 114 126 127 131 139 119 81 81 80 89 116 140 154 163 167 170 172 173 175 178 177 174 174 176 177 177 179 183 186 190 197 201 199 196 198 202 207 209 209 209 207 205 204 203 204 202 198 199 203 203 201 199 196 195 196 197 197 195 190 188 189 189 188 188 189 192 195 196
58 78 77 66 60 60 62 70 77 81 80 75 71 78 81 75 71 79 91 106 117 123 126 124 120 127 127 114 109 116 135 154 164 169 171 174 176 176 176 178 178 177 179 182 185 186 187 188 195 200 200 201 206 211 212 212 213 211 210 210 210 209 207 206 204 200 200 202 201 199 200 199 197 198 200 199 196 192 189 190 191 189 189 191 192 194 197
54 96 68 45 51 56 58 74 82 77 73 72 73 80 83 81 83 88 94 100 103 106 109 108 116 135 141 140 138 133 134 149 161 168 172 176 176 174 177 181 180 177 180 187 192 197 200 200 204 208 209 211 216 221 220 219 217 215 215 216 215 212 208 207 206 202 201 201 200 197 197 198 198 201 203 202 198 194 192 192 192 190 191 192 192 193 197
31 89 55 45 73 67 55 63 67 59 62 67 72 82 88 89 89 91 93 95 94 93 97 98 109 131 145 152 153 150 147 148 155 167 175 177 175 174 179 183 180 178 185 191 194 198 204 208 211 211 212 216 219 220 222 223 221 219 220 219 216 213 211 210 208 204 202 203 201 196 194 196 200 203 204 204 204 202 199 196 194 193 194 195 193 192 196
83 92 33 35 84 79 59 51 46 43 47 54 64 78 86 88 90 90 89 89 89 91 95 93 95 114 133 146 152 152 151 150 154 164 172 176 177 177 179 181 180 181 187 188 188 193 201 207 211 211 212 217 219 220 223 224 221 221 223 220 216 214 213 211 208 204 203 203 202 199 196 197 200 204 206 207 208 209 208 205 201 198 197 198 196 195 196
139 82 28 15 43 71 54 36 30 33 37 39 49 60 62 66 74 79 84 87 86 88 92 93 93 102 117 133 141 141 144 151 156 161 165 170 175 178 180 182 183 186 187 182 185 195 202 203 207 211 214 215 215 216 220 222 221 221 220 216 214 214 214 212 209 206 205 204 203 203 201 199 200 205 210 210 209 210 213 212 209 205 203 202 200 198 196
102 56 37 21 12 60 58 33 21 28 33 33 39 45 46 51 57 60 68 76 75 76 83 89 94 101 112 124 130 130 133 143 153 158 161 165 170 177 183 183 184 189 190 183 183 193 200 201 204 211 213 209 207 210 215 218 220 219 214 212 212 212 213 212 211 211 210 206 205 206 205 202 202 207 212 213 212 214 217 217 215 215 214 211 208 204 198
82 52 38 14 345 36 51 32 24 38 47 43 42 45 48 52 54 58 62 66 66 67 71 76 86 96 103 110 120 126 128 134 147 157 158 160 166 174 181 184 187 192 191 186 182 185 191 194 196 201 205 205 202 204 208 211 213 214 212 212 214 214 212 211 212 213 212 210 209 210 208 206 207 212 215 214 213 215 217 216 214 216 217 216 217 214 207
23 20 7 346 348 14 29 57 57 54 63 64 54 52 59 62 61 63 65 67 70 72 72 74 81 87 89 90 97 109 117 129 146 153 154 160 165 168 176 184 189 187 184 185 186 186 188 190 191 195 202 206 203 203 204 204 205 208 210 213 216 217 215 212 212 214 214 212 212 213 212 211 212 215 215 214 214 215 214 211 209 210 210 210 212 212 211
346 350 349 56 123 147 190 134 100 73 76 82 74 72 81 77 71 72 74 74 79 81 83 85 85 83 85 86 86 97 118 143 154 152 154 162 163 166 174 179 180 178 179 182 187 190 194 196 197 200 205 202 198 200 202 202 204 208 211 214 217 218 218 216 215 216 216 215 214 215 215 215 215 216 215 214 216 217 215 209 206 207 207 206 205 203 203
324 328 267 192 164 168 183 166 131 143 141 119 105 103 100 90 83 83 86 86 87 89 90 89 83 79 80 81 86 106 130 146 150 146 150 156 158 166 177 176 174 178 183 183 183 187 194 197 198 202 204 199 193 192 194 200 205 210 212 215 218 220 220 218 218 220 220 218 217 218 218 217 218 218 216 215 217 220 218 212 208 208 209 207 205 200 197
286 271 241 240 150 150 178 207 194 175 163 146 134 124 113 107 103 99 99 100 98 96 92 88 85 83 81 79 83 96 111 126 135 138 145 152 158 166 177 180 181 185 187 185 184 184 187 188 188 194 201 201 195 189 190 194 201 207 211 213 215 218 219 217 218 222 223 220 219 220 220 219 219 218 218 217 218 220 220 216 212 212 214 214 209 202 196
237 249 235 227 185 171 184 196 187 173 164 155 146 137 131 132 128 117 115 115 109 101 96 92 89 88 86 87 88 90 96 111 131 140 144 149 154 161 169 179 188 191 189 189 189 186 184 185 187 192 198 200 198 198 200 199 200 203 205 206 210 214 216 217 218 221 223 222 221 221 220 219 219 219 220 219 218 218 219 216 212 212 217 222 217 207 197
204 227 219 208 202 195 190 189 178 169 164 159 153 152 155 157 149 135 127 124 118 113 106 97 92 90 88 91 97 102 105 110 124 137 141 141 143 150 158 168 179 187 190 193 194 189 183 185 190 194 195 195 195 200 205 207 208 207 204 205 210 214 214 216 218 219 221 223 223 221 219 218 218 219 219 218 215 215 215 213 208 205 212 225 225 214 204
202 217 218 209 208 205 201 197 188 175 168 165 160 158 159 160 155 145 136 128 122 117 108 95 92 96 98 99 99 101 108 113 119 129 135 135 134 136 141 149 159 172 186 194 198 193 189 189 192 193 194 196 198 201 203 206 212 214 211 210 212 214 215 218 220 219 221 222 221 220 219 217 217 218 217 213 210 209 209 209 206 200 203 219 227 220 212
200 203 202 199 199 202 201 199 192 178 171 168 164 161 163 165 158 150 145 141 133 122 106 93 94 105 110 109 105 103 109 115 117 122 126 129 130 132 134 140 150 160 170 178 185 190 194 198 201 201 201 202 204 206 208 210 211 213 213 214 213 210 211 216 219 220 221 222 220 219 219 218 218 218 214 208 206 205 204 206 205 201 200 210 217 216 215
221 203 190 187 199 201 190 178 178 177 179 183 181 176 176 176 172 164 162 157 143 126 113 103 100 112 119 116 113 116 121 123 124 127 129 129 131 134 135 136 141 147 150 153 157 165 178 194 201 202 202 200 200 205 212 215 215 213 214 216 213 208 208 213 217 219 220 220 219 219 218 217 218 217 212 206 204 203 202 204 205 202 201 205 206 208 213
72 101 103 106 120 128 117 113 127 148 167 180 183 179 179 182 184 186 184 176 155 139 137 127 106 101 116 125 126 130 135 138 141 143 142 139 140 142 143 143 146 148 149 152 155 162 170 180 185 190 196 200 202 207 211 215 217 216 216 216 215 211 210 212 215 216 217 217 217 216 215 216 217 215 210 206 203 201 201 203 203 201 201 203 203 205 211
87 84 89 100 101 93 91 94 104 119 140 167 179 180 182 187 192 198 201 198 191 181 171 156 128 105 100 117 135 147 156 158 157 157 154 150 149 150 151 153 154 155 158 163 166 169 176 180 180 181 188 193 197 201 207 212 212 210 209 210 212 212 211 212 214 214 213 214 216 216 214 214 213 210 208 207 206 205 204 205 205 204 203 203 203 204 208
84 75 74 79 78 79 85 89 99 117 136 165 183 186 189 193 200 208 210 209 209 204 193 179 157 130 111 109 117 125 141 157 161 159 155 153 154 154 152 156 160 159 162 173 179 179 181 184 184 184 185 188 192 198 201 202 202 200 198 199 204 208 209 211 213 211 208 209 215 216 213 211 210 209 209 209 209 209 209 209 209 208 205 204 205 207 209
76 74 74 69 61 61 66 76 107 132 149 170 182 186 188 193 201 207 208 211 214 208 199 189 175 158 150 149 142 44 54 162 172 168 160 156 154 151 148 152 157 154 154 176 190 188 186 187 187 186 184 185 190 194 192 188 189 191 192 195 200 205 206 206 208 207 206 207 211 212 210 208 209 209 210 211 212 212 212 211 208 205 204 204 207 209 210
68 73 77 74 66 56 47 65 118 134 146 167 179 183 183 185 190 192 192 198 200 195 188 185 180 174 169 174 228 282 291 271 212 186 171 161 157 153 149 148 151 150 160 188 195 190 187 185 183 182 183 185 187 188 184 179 178 182 187 191 195 199 200 201 202 203 205 207 207 204 203 205 208 208 209 210 211 211 209 206 203 202 204 207 208 208 209
72 78 69 56 44 28 40 79 110 127 151 171 182 186 186 186 183 180 185 194 194 191 197 208 211 212 210 186 211 262 268 249 219 201 186 175 171 169 169 176 185 187 191 194 191 186 183 181 178 176 180 183 183 179 172 168 169 172 178 184 189 192 194 195 196 199 204 206 203 200 200 202 206 208 208 207 205 204 202 201 199 200 202 204 204 204 208
73 71 30 0 315 228 144 126 123 111 121 162 185 198 204 204 198 195 211 224 225 233 253 264 263 258 252 236 226 249 251 226 207 198 189 182 180 177 178 194 204 203 199 193 186 178 174 173 171 170 172 173 172 168 163 162 163 166 171 176 181 183 184 186 190 194 199 200 200 201 203 204 205 204 202 199 198 197 196 196 197 199 201 202 204 208 214
83 70 29 17 38 118 113 129 144 116 98 143 174 184 205 210 206 212 231 238 239 247 260 263 258 247 240 232 222 217 213 204 197 190 181 176 174 170 170 191 200 199 196 190 181 172 166 165 162 161 163 166 164 160 157 156 158 161 165 169 172 174 178 183 190 197 200 200 201 202 203 204 203 200 197 196 196 196 195 197 199 201 204 208 213 218 224
121 112 47 32 53 101 87 79 115 124 105 180 167 144 163 198 201 211 224 230 234 241 247 249 244 234 226 219 208 193 178 176 181 179 171 166 168 165 170 191 197 196 193 187 177 169 165 162 157 155 159 164 164 160 156 156 158 160 163 166 169 174 181 188 193 196 196 193 191 193 195 197 197 196 194 193 193 191 191 194 197 202 209 215 218 219 218
137 166 82 31 37 163 133 76 83 81 44 21 62 117 132 185 196 208 215 218 231 239 234 223 216 212 206 201 196 187 174 164 167 171 174 181 186 182 176 185 192 192 187 180 173 168 165 162 158 156 158 161 163 161 158 157 160 163 165 168 172 176 181 183 183 183 183 181 183 187 190 189 186 183 181 179 178 179 182 189 197 205 210 210 205 199 193
133 184 197 186 135 136 144 122 86 98 66 14 19 51 59 79 144 172 193 196 206 214 206 188 186 189 182 174 179 183 180 173 169 172 177 186 194 191 180 178 182 182 177 171 164 160 161 161 159 157 156 157 159 159 158 158 163 167 168 168 169 171 173 175 175 177 179 180 180 178 174 169 165 164 165 165 166 170 176 184 191 193 192 188 185 184 186
171 172 198 210 190 146 133 109 105 154 172 199 38 55 49 41 57 113 134 153 171 181 181 182 189 192 182 167 164 170 170 164 160 162 166 175 184 183 176 171 170 171 170 164 153 147 156 159 156 154 154 154 155 158 159 160 164 165 163 161 164 166 168 170 172 173 173 172 169 164 160 159 159 162 164 167 169 171 175 180 183 182 180 180 180 182 186
187 184 198 210 197 170 148 111 81 89 94 82 94 82 25 8 6 68 110 128 146 163 176 181 184 184 177 167 158 154 154 153 155 158 164 173 178 175 169 163 162 163 163 157 144 143 150 150 147 146 149 148 147 150 153 155 157 159 158 158 161 164 165 167 169 169 168 167 165 163 162 163 165 167 169 171 172 173 175 178 181 182 182 181 181 182 186
193 193 195 185 171 159 139 104 65 30 25 44 66 44 347 344 348 131 111 120 131 150 171 175 175 175 173 169 160 149 143 143 148 154 158 163 166 164 160 157 157 158 155 148 141 141 145 144 142 144 145 143 140 141 144 146 148 150 150 149 151 155 159 163 167 169 170 171 172 173 174 175 175 176 179 182 183 181 179 177 177 180 183 186 189 193 196
190 194 191 180 170 160 137 102 126 241 249 211 142 309 316 311 256 215 166 142 151 171 176 171 165 162 162 161 158 154 148 145 148 154 155 154 156 158 158 155 154 152 148 143 140 140 143 145 146 145 144 141 139 139 141 143 143 144 145 146 148 150 154 158 164 171 177 182 182 180 180 181 181 183 187 190 188 181 174 171 172 178 186 192 195 198 200
188 192 190 186 179 173 169 170 180 184 168 154 184 263 319 340 239 223 187 158 170 184 179 171 167 165 162 162 162 161 158 156 159 162 158 153 154 157 158 155 153 149 146 144 143 142 141 142 143 141 140 141 143 143 144 145 145 145 147 149 148 148 151 159 165 171 179 185 186 184 183 184 185 184 185 186 183 176 171 172 176 181 185 189 193 197 200
183 186 187 185 182 179 182 187 187 172 135 142 182 273 351 20 188 215 197 177 181 185 177 172 172 170 166 166 168 170 167 166 168 166 161 157 157 158 157 156 154 152 149 149 149 145 140 139 141 141 140 144 148 148 146 147 148 150 151 150 148 149 154 158 160 159 162 169 176 180 183 184 184 183 183 185 187 187 188 190 193 195 196 198 200 202 206
191 192 189 186 187 191 196 196 193 196 187 177 177 207 324 275 247 256 246 199 187 189 183 179 178 176 171 169 170 168 163 163 166 167 164 161 160 159 156 154 153 151 149 151 153 149 144 144 146 146 144 146 151 153 152 151 153 153 152 149 147 148 149 147 146 151 154 157 161 171 179 185 190 193 197 201 204 203 201 200 203 207 210 210 210 212 215
201 206 205 199 193 194 202 217 236 242 218 188 178 193 226 227 248 281 282 235 192 190 190 187 186 186 181 173 164 162 164 165 166 168 167 164 161 159 156 153 151 149 149 152 156 155 152 151 151 149 146 147 152 156 157 156 154 153 153 152 155 159 159 156 156 162 164 164 165 172 181 188 195 199 203 208 211 210 209 208 209 211 212 212 213 216 219